User: anonymous   Login
Location: Unspecified
(0.0000°N, 0.0000°E)
Time: 01:33:16
(UTC+00:00)
Language:

Vela 3B - Orbit

View from above orbital plane
View from above orbital plane
View from above satellite
View from above satellite

Ground track
Ground track

The orbit data is extracted from the following two-line orbital elements,

1  1459U 65058B   17092.17884465 -.00001306 +00000-0 +00000-0 0  9996
2  1459 010.3811 059.0102 4623163 306.7969 359.4600 00.21426728040842
Epoch (UTC): 02 April 2017 04:17:32
Eccentricity: 0.4623163
inclination: 10.3811°
perigee height: 57051 km
apogee height: 166126 km
right ascension of ascending node: 59.0102°
argument of perigee: 306.7969°
revolutions per day: 0.21426728
mean anomaly at epoch: 359.4600°
orbit number at epoch: 4084

The dashed part of the orbit path shows where the satellite is in the earth's shadow,  

DLR